Location: Durkee
(44.1305°N, 107.9134°W)
Time: 11:13:05
(UTC+00:00)

N. Korean satellite - Visible Passes

Search period start: 18 January 2022 00:00
Search period end: 28 January 2022 00:00
Orbit: 446 x 492 km, 97.3° (Epoch: 17 January)

Date Brightness Start Highest point End Pass type
(mag) Time Alt. Az. Time Alt. Az. Time Alt. Az.
18 Jan 8.4 12:51:26 10° N 12:52:39 19° N 12:52:39 19° N visible
19 Jan 8.6 12:22:17 10° NNE 12:31:28 - S 12:23:34 21° NNE visible
20 Jan 9.2 11:53:30 10° NE 12:02:06 - S 11:54:29 16° NE visible
20 Jan 8.2 13:27:01 10° NNW 13:28:33 17° NW 13:28:33 17° NW visible
21 Jan 7.6 12:57:17 10° N 12:59:27 29° NNW 12:59:27 29° NNW visible
22 Jan 7.5 12:27:59 10° NNE 12:30:21 38° NNE 12:30:21 38° NNE visible
23 Jan 9.8 00:37:40 10° SW 00:39:42 15° W 00:41:45 10° NW visible
23 Jan 8.5 11:59:04 10° NNE 12:07:54 - S 12:01:15 27° ENE visible
23 Jan 8.1 13:32:54 10° NNW 13:35:18 17° WNW 13:35:19 17° WNW visible
24 Jan 9.6 11:30:46 10° NE 11:32:09 15° ENE 11:32:09 15° ENE visible
24 Jan 7.1 13:02:59 10° N 13:06:13 35° WNW 13:06:13 35° WNW visible
25 Jan 6.4 12:33:33 10° N 12:37:06 81° NW 12:37:06 81° NW visible
26 Jan 9.9 00:43:38 10° WSW 00:45:16 13° W 00:46:56 10° WNW visible
26 Jan 7.9 12:04:30 10° NNE 12:07:57 40° E 12:08:00 40° E visible
26 Jan 8.3 13:38:39 10° NNW 13:40:45 15° WNW 13:42:03 13° W visible
27 Jan 9.3 11:35:58 10° NE 11:38:33 18° E 11:38:53 18° E visible
27 Jan 7.3 13:08:31 10° N 13:11:45 30° WNW 13:12:57 24° WSW visible
